When you browse on this site, cookies collect data to enhance your experience and personalize the content and advertising you see.
Visit our Privacy Policy to learn more. By continuing to use the site, you agree to this use of cookies and data.
  • In Hungary
  • List of Countries
  • For 7 days
  • Water Temperature
  • Satellite Maps
  • Weather Map
  • News
  • Weather Widgets
  • user-avatar
    Login

    Hourly Weather Carrollton

    Today, 22 March, Friday

    Time Temperature Precipitation Wind Pressure Humidity
    00:00 +17°C° 0 mm 2 mps 752 mmHg 47%
    01:00 +16°C° 0 mm 2 mps 752 mmHg 49%
    02:00 +16°C° 0 mm 2 mps 752 mmHg 51%
    03:00 +15°C° 0 mm 2 mps 752 mmHg 53%
    04:00 +15°C° 0 mm 2 mps 752 mmHg 55%
    05:00 +15°C° 0 mm 2 mps 752 mmHg 56%
    06:00 +13°C° 0 mm 3 mps 752 mmHg 57%
    07:00 +16°C° 0 mm 3 mps 752 mmHg 53%
    08:00 +17°C° 0 mm 3 mps 752 mmHg 50%
    09:00 +18°C° 0 mm 2 mps 753 mmHg 47%
    10:00 +20°C° 0 mm 2 mps 752 mmHg 41%
    11:00 +21°C° 0 mm 2 mps 752 mmHg 35%
    12:00 +24°C° 0 mm 2 mps 752 mmHg 29%
    13:00 +25°C° 0 mm 2 mps 751 mmHg 29%
    14:00 +25°C° 0 mm 3 mps 750 mmHg 28%
    15:00 +26°C° 0 mm 3 mps 750 mmHg 28%
    16:00 +25°C° 0 mm 4 mps 749 mmHg 32%
    17:00 +25°C° 0 mm 4 mps 749 mmHg 36%
    18:00 +23°C° 0 mm 4 mps 749 mmHg 39%
    19:00 +22°C° 0 mm 4 mps 749 mmHg 43%
    20:00 +21°C° 0 mm 4 mps 749 mmHg 46%
    21:00 +20°C° 0 mm 4 mps 750 mmHg 49%
    22:00 +20°C° 0 mm 4 mps 749 mmHg 51%
    23:00 +19°C° 0 mm 4 mps 749 mmHg 53%

    Tomorrow, 23 March, Saturday

    Time Temperature Precipitation Wind Pressure Humidity
    00:00 +19°C° 0 mm 4 mps 749 mmHg 55%
    01:00 +18°C° 0.1 mm 4 mps 749 mmHg 60%
    02:00 +18°C° 0.1 mm 4 mps 749 mmHg 64%
    03:00 +17°C° 0.1 mm 4 mps 749 mmHg 69%
    04:00 +17°C° 0.5 mm 4 mps 749 mmHg 68%
    05:00 +16°C° 0.5 mm 5 mps 749 mmHg 67%
    06:00 +16°C° 0.5 mm 5 mps 749 mmHg 67%
    07:00 +17°C° 0.9 mm 6 mps 749 mmHg 66%
    08:00 +17°C° 0.9 mm 6 mps 749 mmHg 65%
    09:00 +18°C° 0.9 mm 7 mps 750 mmHg 65%
    10:00 +20°C° 0.6 mm 7 mps 750 mmHg 62%
    11:00 +21°C° 0.6 mm 7 mps 749 mmHg 59%
    12:00 +23°C° 0.6 mm 7 mps 749 mmHg 56%
    13:00 +22°C° 0.1 mm 7 mps 748 mmHg 60%
    14:00 +22°C° 0.1 mm 7 mps 748 mmHg 63%
    15:00 +22°C° 0.1 mm 7 mps 747 mmHg 66%
    16:00 +22°C° 0.1 mm 7 mps 747 mmHg 67%
    17:00 +22°C° 0.1 mm 7 mps 747 mmHg 69%
    18:00 +22°C° 0.1 mm 6 mps 747 mmHg 70%
    19:00 +21°C° 0.3 mm 6 mps 747 mmHg 73%
    20:00 +21°C° 0.3 mm 6 mps 747 mmHg 76%
    21:00 +20°C° 0.3 mm 7 mps 748 mmHg 79%
    22:00 +20°C° 0.2 mm 7 mps 748 mmHg 80%
    23:00 +20°C° 0.2 mm 7 mps 748 mmHg 81%

    Day after tomorrow, 24 March, Sunday

    Time Temperature Precipitation Wind Pressure Humidity
    00:00 +20°C° 0.2 mm 7 mps 748 mmHg 83%
    01:00 +20°C° 0 mm 7 mps 748 mmHg 83%
    02:00 +20°C° 0 mm 7 mps 748 mmHg 83%
    03:00 +20°C° 0 mm 7 mps 747 mmHg 83%
    04:00 +20°C° 0 mm 6 mps 747 mmHg 82%
    05:00 +20°C° 0 mm 6 mps 747 mmHg 81%
    06:00 +20°C° 0 mm 5 mps 747 mmHg 81%
    07:00 +20°C° 0 mm 6 mps 748 mmHg 77%
    08:00 +21°C° 0 mm 6 mps 748 mmHg 73%
    09:00 +22°C° 0 mm 6 mps 748 mmHg 70%
    10:00 +24°C° 0 mm 6 mps 748 mmHg 64%
    11:00 +26°C° 0 mm 6 mps 748 mmHg 59%
    12:00 +28°C° 0 mm 5 mps 748 mmHg 53%
    13:00 +29°C° 0 mm 5 mps 747 mmHg 48%
    14:00 +30°C° 0 mm 5 mps 747 mmHg 44%
    15:00 +32°C° 0 mm 5 mps 746 mmHg 39%
    16:00 +30°C° 0.1 mm 4 mps 746 mmHg 42%
    17:00 +29°C° 0.1 mm 4 mps 746 mmHg 45%
    18:00 +28°C° 0.1 mm 3 mps 746 mmHg 48%
    19:00 +26°C° 1 mm 3 mps 747 mmHg 52%
    20:00 +25°C° 1 mm 2 mps 747 mmHg 57%
    21:00 +23°C° 1 mm 2 mps 748 mmHg 62%
    22:00 +22°C° 0 mm 3 mps 748 mmHg 60%
    23:00 +21°C° 0 mm 3 mps 749 mmHg 59%

    25 March, Monday

    Time Temperature Precipitation Wind Pressure Humidity
    00:00 +20°C° 0 mm 4 mps 749 mmHg 57%
    01:00 +19°C° 0 mm 4 mps 749 mmHg 58%
    02:00 +19°C° 0 mm 4 mps 749 mmHg 60%
    03:00 +18°C° 0 mm 4 mps 749 mmHg 61%
    04:00 +17°C° 0 mm 4 mps 750 mmHg 63%
    05:00 +17°C° 0 mm 4 mps 750 mmHg 65%
    06:00 +15°C° 0 mm 4 mps 750 mmHg 67%
    07:00 +17°C° 0 mm 4 mps 751 mmHg 64%
    08:00 +18°C° 0 mm 4 mps 752 mmHg 62%
    09:00 +19°C° 0 mm 5 mps 753 mmHg 59%
    10:00 +20°C° 0 mm 5 mps 753 mmHg 54%
    11:00 +21°C° 0 mm 5 mps 753 mmHg 48%
    12:00 +23°C° 0 mm 4 mps 753 mmHg 43%
    13:00 +23°C° 0 mm 5 mps 753 mmHg 42%
    14:00 +23°C° 0 mm 5 mps 752 mmHg 41%
    15:00 +25°C° 0 mm 5 mps 752 mmHg 40%
    16:00 +23°C° 0 mm 4 mps 752 mmHg 43%
    17:00 +23°C° 0 mm 4 mps 752 mmHg 45%
    18:00 +22°C° 0 mm 4 mps 752 mmHg 48%
    19:00 +21°C° 0 mm 4 mps 753 mmHg 51%
    20:00 +20°C° 0 mm 4 mps 754 mmHg 54%
    21:00 +19°C° 0 mm 4 mps 754 mmHg 56%
    22:00 +18°C° 0 mm 4 mps 754 mmHg 59%
    23:00 +17°C° 0 mm 4 mps 755 mmHg 62%

    26 March, Tuesday

    Time Temperature Precipitation Wind Pressure Humidity
    00:00 +16°C° 0 mm 3 mps 755 mmHg 64%
    01:00 +16°C° 0 mm 3 mps 755 mmHg 67%
    02:00 +14°C° 0 mm 3 mps 755 mmHg 69%
    03:00 +13°C° 0 mm 3 mps 755 mmHg 71%
    04:00 +13°C° 0 mm 3 mps 755 mmHg 71%
    05:00 +13°C° 0 mm 3 mps 755 mmHg 72%
    06:00 +12°C° 0 mm 3 mps 755 mmHg 72%
    07:00 +13°C° 0 mm 3 mps 755 mmHg 70%
    08:00 +14°C° 0 mm 3 mps 756 mmHg 68%
    09:00 +16°C° 0 mm 3 mps 756 mmHg 66%
    10:00 +18°C° 0 mm 3 mps 756 mmHg 59%
    11:00 +19°C° 0 mm 3 mps 756 mmHg 52%
    12:00 +21°C° 0 mm 3 mps 756 mmHg 44%
    13:00 +22°C° 0 mm 3 mps 755 mmHg 42%
    14:00 +24°C° 0 mm 3 mps 755 mmHg 39%
    15:00 +25°C° 0 mm 3 mps 754 mmHg 36%
    16:00 +23°C° 0 mm 4 mps 754 mmHg 40%
    17:00 +23°C° 0 mm 4 mps 754 mmHg 43%
    18:00 +22°C° 0 mm 4 mps 754 mmHg 46%
    19:00 +21°C° 0 mm 4 mps 754 mmHg 48%
    20:00 +20°C° 0 mm 4 mps 754 mmHg 51%
    21:00 +19°C° 0 mm 4 mps 755 mmHg 53%
    22:00 +18°C° 0 mm 4 mps 755 mmHg 54%
    23:00 +18°C° 0 mm 4 mps 755 mmHg 55%

    27 March, Wednesday

    Time Temperature Precipitation Wind Pressure Humidity
    00:00 +17°C° 0 mm 4 mps 754 mmHg 56%
    01:00 +17°C° 0 mm 4 mps 754 mmHg 56%
    02:00 +15°C° 0 mm 4 mps 754 mmHg 57%
    03:00 +14°C° 0 mm 4 mps 754 mmHg 58%
    04:00 +14°C° 0 mm 4 mps 754 mmHg 60%
    05:00 +13°C° 0 mm 5 mps 755 mmHg 61%
    06:00 +13°C° 0 mm 5 mps 755 mmHg 63%
    07:00 +14°C° 0 mm 5 mps 755 mmHg 62%
    08:00 +14°C° 0 mm 5 mps 755 mmHg 60%
    09:00 +15°C° 0 mm 6 mps 755 mmHg 59%
    10:00 +17°C° 0 mm 6 mps 755 mmHg 55%
    11:00 +19°C° 0 mm 6 mps 755 mmHg 51%
    12:00 +21°C° 0 mm 6 mps 754 mmHg 46%
    13:00 +22°C° 0 mm 6 mps 753 mmHg 44%
    14:00 +23°C° 0 mm 6 mps 753 mmHg 41%
    15:00 +23°C° 0 mm 6 mps 752 mmHg 39%
    16:00 +23°C° 0 mm 6 mps 752 mmHg 41%
    17:00 +22°C° 0 mm 6 mps 751 mmHg 43%
    18:00 +22°C° 0 mm 6 mps 751 mmHg 45%
    19:00 +21°C° 0 mm 6 mps 751 mmHg 48%
    20:00 +21°C° 0 mm 6 mps 752 mmHg 51%
    21:00 +20°C° 0 mm 6 mps 752 mmHg 53%
    22:00 +19°C° 0 mm 6 mps 752 mmHg 58%
    23:00 +19°C° 0 mm 6 mps 752 mmHg 63%
    Show more